FW6744 Weather Reports


time (UTC)temp
C
wind
direction
speed
KPH
gust
KPH
rain 1hr
cm
rain 24hr
cm
rain mn
cm
humidity
%
barometer
mb
20260902022046 26 80 0.0 0.0 0.00 0.00 0.00 82 1011.7
20260902021548 26 80 0.0 0.0 0.00 0.00 0.00 82 1011.7
20260902021306 26 80 0.0 0.0 0.00 0.00 0.00 81 1011.7
20260902020541 27 80 0.0 0.0 0.00 0.00 0.00 81 1011.8
20260902020039 27 80 0.0 0.0 0.00 0.00 0.00 81 1011.7
20260902015540 27 80 0.0 0.0 0.00 0.00 0.00 80 1011.6
20260902015039 27 80 0.0 0.0 0.00 0.00 0.00 80 1011.6
20260902014538 27 80 0.0 0.0 0.00 0.00 0.00 80 1011.4
20260902014035 27 80 0.0 0.0 0.00 0.00 0.00 80 1011.4
20260902013535 27 80 0.0 0.0 0.00 0.00 0.00 80 1011.3
20260902013034 27 80 0.0 0.0 0.00 0.00 0.00 80 1011.1
20260902012533 27 80 0.0 0.0 0.00 0.00 0.00 80 1011.1
20260902012031 27 80 0.0 0.0 0.00 0.00 0.00 80 1011.1
20260902011531 27 80 0.0 0.0 0.00 0.00 0.00 80 1011.1
20260902011030 27 80 0.0 0.0 0.00 0.00 0.00 79 1011.0
20260902010530 27 80 0.0 0.0 0.00 0.00 0.00 79 1010.9
20260902010252 27 80 0.0 0.0 0.00 0.00 0.00 78 1010.9
20260902005527 28 80 0.0 0.0 0.00 0.00 0.00 77 1010.9
20260902005459 28 80 0.0 0.0 0.00 0.00 0.00 77 1010.9
20260902004515 28 80 0.0 0.0 0.00 0.00 0.00 77 1010.9
20260902004009 28 80 0.0 0.0 0.00 0.00 0.00 76 1010.8
20260902003503 28 80 0.0 0.0 0.00 0.00 0.00 76 1010.7
20260902002957 28 80 0.0 0.0 0.00 0.00 0.00 75 1010.6
20260902002451 28 80 0.0 0.0 0.00 0.00 0.00 75 1010.5
20260902001945 28 80 0.0 0.0 0.00 0.00 0.00 74 1010.5
20260902001935 28 80 0.0 0.0 0.00 0.00 0.00 74 1010.5
20260902000941 29 80 0.0 0.0 0.00 0.00 0.00 73 1010.5
20260902000440 29 80 0.0 0.0 0.00 0.00 0.00 72 1010.5
20260901235942 29 80 0.0 0.0 0.00 0.00 0.00 71 1010.6
20260901235439 30 80 0.0 0.0 0.00 0.00 0.00 70 1010.5
20260901234940 30 80 0.0 0.0 0.00 0.00 0.00 70 1010.5
20260901234440 30 80 0.0 0.0 0.00 0.00 0.00 70 1010.5
20260901233939 30 80 0.0 0.0 0.00 0.00 0.00 69 1010.5
20260901233438 30 80 0.0 0.0 0.00 0.00 0.00 69 1010.5
20260901232938 30 80 0.0 0.0 0.00 0.00 0.00 68 1010.6
20260901232925 31 80 0.0 0.0 0.00 0.00 0.00 67 1010.6
20260901232417 31 80 0.0 0.0 0.00 0.00 0.00 66 1010.6
20260901231434 31 80 0.0 0.0 0.00 0.00 0.00 66 1010.7
20260901230936 31 80 0.0 0.0 0.00 0.00 0.00 65 1010.8
20260901230436 32 80 0.0 0.0 0.00 0.00 0.00 64 1010.8
20260901225935 32 80 0.0 1.6 0.00 0.00 0.00 62 1010.8
20260901225436 32 80 0.0 1.6 0.00 0.00 0.00 64 1010.8
20260901224936 32 80 0.0 0.0 0.00 0.00 0.00 64 1010.8
20260901224435 32 80 0.0 0.0 0.00 0.00 0.00 62 1010.9
20260901223936 32 80 0.0 0.0 0.00 0.00 0.00 62 1010.9
20260901223705 32 80 0.0 0.0 0.00 0.00 0.00 60 1010.8
20260901222935 33 80 0.0 0.0 0.00 0.00 0.00 60 1010.9
20260901222435 33 80 0.0 1.6 0.00 0.00 0.00 59 1011.0
20260901221934 33 80 0.0 1.6 0.00 0.00 0.00 58 1011.0
20260901221435 33 80 0.0 0.0 0.00 0.00 0.00 59 1011.0
20260901220936 33 80 0.0 1.6 0.00 0.00 0.00 58 1011.0
20260901220436 33 80 0.0 1.6 0.00 0.00 0.00 58 1011.1
20260901215935 33 49 0.0 1.6 0.00 0.00 0.00 57 1011.1
20260901215432 33 49 0.0 1.6 0.00 0.00 0.00 57 1011.1
20260901214927 34 49 0.0 1.6 0.00 0.00 0.00 57 1011.1
20260901214640 34 49 0.0 1.6 0.00 0.00 0.00 56 1011.1
20260901213915 35 49 0.0 1.6 0.00 0.00 0.00 54 1011.1
20260901213630 35 49 0.0 1.6 0.00 0.00 0.00 54 1011.1
20260901212903 35 51 0.0 1.6 0.00 0.00 0.00 53 1011.1
20260901212631 36 51 0.0 1.6 0.00 0.00 0.00 50 1011.1
20260901211850 36 55 0.0 4.8 0.00 0.00 0.00 51 1011.1
20260901211343 36 163 0.0 4.8 0.00 0.00 0.00 48 1011.2
20260901210837 36 53 0.0 3.2 0.00 0.00 0.00 51 1011.2
20260901210332 35 179 0.0 3.2 0.00 0.00 0.00 50 1011.3
20260901210055 35 31 0.0 3.2 0.00 0.00 0.00 49 1011.4
20260901205333 36 32 0.0 3.2 0.00 0.00 0.00 50 1011.3
20260901204837 36 30 1.6 3.2 0.00 0.00 0.00 49 1011.4
20260901204815 36 34 1.6 4.8 0.00 0.00 0.00 48 1011.4
20260901203831 37 209 1.6 8.0 0.00 0.00 0.00 45 1011.4
20260901203331 36 194 1.6 8.0 0.00 0.00 0.00 47 1011.4
20260901203056 36 204 1.6 4.8 0.00 0.00 0.00 48 1011.5
20260901202328 36 25 0.0 3.2 0.00 0.00 0.00 51 1011.5
20260901201830 36 345 0.0 3.2 0.00 0.00 0.00 48 1011.5
20260901201329 37 25 1.6 4.8 0.00 0.00 0.00 49 1011.6
20260901200828 37 188 1.6 4.8 0.00 0.00 0.00 49 1011.7
20260901200326 37 39 0.0 3.2 0.00 0.00 0.00 48 1011.7
20260901195826 37 32 0.0 3.2 0.00 0.00 0.00 49 1011.7
20260901195327 37 157 0.0 3.2 0.00 0.00 0.00 46 1011.8
20260901194821 37 169 0.0 3.2 0.00 0.00 0.00 47 1011.7
20260901194315 37 207 1.6 3.2 0.00 0.00 0.00 45 1011.8
20260901193809 37 32 0.0 3.2 0.00 0.00 0.00 48 1011.8
20260901193303 37 202 0.0 3.2 0.00 0.00 0.00 48 1011.8
20260901193017 37 36 0.0 3.2 0.00 0.00 0.00 47 1011.8
20260901192253 37 181 0.0 3.2 0.00 0.00 0.00 46 1011.9
20260901191752 37 132 0.0 3.2 0.00 0.00 0.00 47 1012.0
20260901191253 36 26 1.6 6.4 0.00 0.00 0.00 48 1012.0
20260901190754 36 202 1.6 6.4 0.00 0.00 0.00 48 1012.0
20260901190252 36 180 0.0 1.6 0.00 0.00 0.00 49 1012.2
20260901185751 36 172 0.0 0.0 0.00 0.00 0.00 50 1012.2
20260901185512 36 159 0.0 4.8 0.00 0.00 0.00 50 1012.2
20260901184747 36 159 0.0 4.8 0.00 0.00 0.00 50 1012.3
20260901184246 36 224 1.6 6.4 0.00 0.00 0.00 50 1012.3
20260901183747 35 37 1.6 6.4 0.00 0.00 0.00 52 1012.4
20260901183246 35 49 1.6 4.8 0.00 0.00 0.00 50 1012.4
20260901182747 36 41 1.6 4.8 0.00 0.00 0.00 50 1012.5
20260901182508 36 47 0.0 3.2 0.00 0.00 0.00 50 1012.6
20260901181749 36 30 0.0 3.2 0.00 0.00 0.00 49 1012.6
20260901181505 36 147 0.0 4.8 0.00 0.00 0.00 49 1012.5
20260901180742 36 155 0.0 4.8 0.00 0.00 0.00 46 1012.4
20260901180241 36 165 0.0 1.6 0.00 0.00 0.00 46 1012.3
20260901175741 37 40 0.0 3.2 0.00 0.00 0.00 47 1012.4
20260901175235 36 179 0.0 6.4 0.00 0.00 0.00 46 1012.3
20260901174729 36 166 1.6 6.4 0.00 0.00 0.00 47 1012.3
20260901174442 36 287 1.6 4.8 0.00 0.00 0.00 45 1012.3
20260901173943 36 333 0.0 4.8 0.00 0.00 0.00 45 1012.4
20260901173211 36 196 0.0 4.8 0.00 0.00 0.00 52 1012.3
20260901173200 36 130 1.6 4.8 0.00 0.00 0.00 49 1012.4
20260901172159 36 208 1.6 4.8 0.00 0.00 0.00 50 1012.4
20260901171653 35 173 1.6 4.8 0.00 0.00 0.00 51 1012.5
20260901171147 35 155 1.6 4.8 0.00 0.00 0.00 54 1012.5
20260901171128 35 175 0.0 3.2 0.00 0.00 0.00 55 1012.5
20260901170135 35 44 1.6 3.2 0.00 0.00 0.00 55 1012.4
20260901165629 35 69 1.6 4.8 0.00 0.00 0.00 52 1012.5
20260901165346 35 179 0.0 4.8 0.00 0.00 0.00 54 1012.7
20260901164617 35 164 0.0 3.2 0.00 0.00 0.00 57 1012.7
20260901164335 34 205 1.6 3.2 0.00 0.00 0.00 56 1012.8
20260901163825 33 162 1.6 4.8 0.00 0.00 0.00 58 1012.9
20260901163058 33 210 1.6 4.8 0.00 0.00 0.00 57 1013.0
20260901162553 33 205 0.0 4.8 0.00 0.00 0.00 58 1013.1
20260901162047 33 142 0.0 3.2 0.00 0.00 0.00 60 1013.2
20260901161801 32 181 0.0 6.4 0.00 0.00 0.00 62 1013.2
20260901161035 32 204 1.6 6.4 0.00 0.00 0.00 63 1013.3
20260901160529 32 194 0.0 4.8 0.00 0.00 0.00 64 1013.3
20260901160251 32 155 0.0 3.2 0.00 0.00 0.00 64 1013.3
20260901155516 32 49 0.0 3.2 0.00 0.00 0.00 66 1013.4
20260901155011 31 112 1.6 3.2 0.00 0.00 0.00 66 1013.4
20260901154504 31 158 1.6 4.8 0.00 0.00 0.00 66 1013.4
20260901153959 31 118 1.6 9.7 0.00 0.00 0.00 67 1013.5
20260901153452 31 193 0.0 4.8 0.00 0.00 0.00 69 1013.5
20260901153202 31 176 0.0 6.4 0.00 0.00 0.00 68 1013.5
20260901152441 31 78 0.0 6.4 0.00 0.00 0.00 67 1013.6
20260901152155 31 134 0.0 3.2 0.00 0.00 0.00 68 1013.6
20260901151429 30 105 1.6 9.7 0.00 0.00 0.00 69 1013.6
20260901150923 30 133 1.6 9.7 0.00 0.00 0.00 70 1013.6
20260901150417 30 210 1.6 6.4 0.00 0.00 0.00 72 1013.6
20260901145911 30 177 1.6 6.4 0.00 0.00 0.00 72 1013.7
20260901145405 30 172 0.0 3.2 0.00 0.00 0.00 74 1013.7
20260901144859 29 217 1.6 9.7 0.00 0.00 0.00 76 1013.8
20260901144352 29 198 1.6 9.7 0.00 0.00 0.00 76 1013.8
20260901144107 29 182 0.0 4.8 0.00 0.00 0.00 77 1013.9
20260901143340 28 134 0.0 4.8 0.00 0.00 0.00 77 1013.9
20260901143102 28 208 0.0 4.8 0.00 0.00 0.00 78 1013.9
20260901142337 28 207 0.0 4.8 0.00 0.00 0.00 78 1013.8
20260901142058 28 176 0.0 1.6 0.00 0.00 0.00 79 1013.8
20260901141333 28 118 0.0 1.6 0.00 0.00 0.00 79 1013.8
20260901140832 28 90 0.0 4.8 0.00 0.00 0.00 79 1013.8
20260901140332 28 89 1.6 9.7 0.00 0.00 0.00 79 1013.8
20260901135832 27 107 1.6 9.7 0.00 0.00 0.00 79 1013.8
20260901135332 27 77 0.0 3.2 0.00 0.00 0.00 80 1013.8
20260901134831 27 206 0.0 4.8 0.00 0.00 0.00 80 1013.8
20260901134332 27 177 0.0 4.8 0.00 0.00 0.00 81 1013.8
20260901133831 27 171 0.0 3.2 0.00 0.00 0.00 82 1013.8
20260901133554 27 72 0.0 3.2 0.00 0.00 0.00 82 1013.8
20260901132827 27 169 0.0 3.2 0.00 0.00 0.00 83 1013.7
20260901132326 26 234 0.0 6.4 0.00 0.00 0.00 84 1013.7
20260901132050 26 94 0.0 6.4 0.00 0.00 0.00 86 1013.7
20260901131325 26 225 0.0 1.6 0.00 0.00 0.00 88 1013.8
20260901130825 26 225 0.0 1.6 0.00 0.00 0.00 89 1013.9
20260901130326 26 225 0.0 1.6 0.00 0.00 0.00 90 1013.9
20260901125826 25 225 0.0 3.2 0.00 0.00 0.00 90 1013.9
20260901125326 25 225 0.0 3.2 0.00 0.00 0.00 91 1013.9
20260901124826 25 212 0.0 0.0 0.00 0.00 0.00 92 1013.9
20260901124555 25 212 0.0 1.6 0.00 0.00 0.00 93 1013.9
20260901123826 24 212 0.0 1.6 0.00 0.00 0.00 94 1013.9
20260901123325 24 208 0.0 1.6 0.00 0.00 0.00 94 1013.9
20260901122825 24 208 0.0 0.0 0.00 0.00 0.00 94 1013.9
20260901122326 23 208 0.0 0.0 0.00 0.00 0.00 94 1013.9
20260901122314 23 208 0.0 0.0 0.00 0.00 0.00 94 1013.9
20260901121326 23 208 0.0 0.0 0.00 0.00 0.00 94 1013.9
20260901120826 23 208 0.0 0.0 0.00 0.00 0.00 94 1013.9
20260901120329 23 208 0.0 0.0 0.00 0.00 0.00 94 1014.0
20260901115822 23 208 0.0 0.0 0.00 0.00 0.00 94 1013.9
20260901115539 23 208 0.0 0.0 0.00 0.00 0.00 94 1013.9
20260901114811 23 208 0.0 0.0 0.00 0.00 0.00 94 1013.9
20260901114305 23 208 0.0 0.0 0.00 0.00 0.00 94 1013.8
20260901113758 23 208 0.0 0.0 0.00 0.00 0.00 94 1013.8
20260901113257 23 208 0.0 0.0 0.00 0.00 0.00 94 1013.7
20260901113236 23 208 0.0 0.0 0.00 0.00 0.00 94 1013.6
20260901112253 23 208 0.0 0.0 0.00 0.00 0.00 93 1013.5
20260901111755 23 208 0.0 0.0 0.00 0.00 0.00 93 1013.5
20260901111515 23 208 0.0 0.0 0.00 0.00 0.00 93 1013.5
20260901110751 23 208 0.0 0.0 0.00 0.00 0.00 93 1013.5
20260901110248 23 208 0.0 0.0 0.00 0.00 0.00 93 1013.4
20260901105746 23 208 0.0 0.0 0.00 0.00 0.00 93 1013.3
20260901105244 23 208 0.0 0.0 0.00 0.00 0.00 93 1013.4
20260901104741 23 208 0.0 1.6 0.00 0.00 0.00 93 1013.2
20260901104240 23 208 0.0 1.6 0.00 0.00 0.00 93 1013.2
20260901103739 23 209 0.0 1.6 0.00 0.00 0.00 94 1013.2
20260901103235 23 209 0.0 1.6 0.00 0.00 0.00 94 1013.2
20260901102958 23 146 0.0 0.0 0.00 0.00 0.00 94 1013.2
20260901102234 23 146 0.0 1.6 0.00 0.00 0.00 94 1013.2
20260901101734 23 146 0.0 1.6 0.00 0.00 0.00 95 1013.2
20260901101235 23 35 0.0 1.6 0.00 0.00 0.00 95 1013.3
20260901100734 23 35 0.0 1.6 0.00 0.00 0.00 95 1013.3
20260901100454 23 32 0.0 0.0 0.00 0.00 0.00 95 1013.4
20260901095730 22 31 0.0 0.0 0.00 0.00 0.00 95 1013.4
20260901095229 22 31 0.0 0.0 0.00 0.00 0.00 95 1013.3
20260901094950 22 30 0.0 0.0 0.00 0.00 0.00 95 1013.3
20260901094218 22 30 0.0 0.0 0.00 0.00 0.00 95 1013.2
20260901093711 22 30 0.0 0.0 0.00 0.00 0.00 95 1013.2
20260901093206 22 31 0.0 0.0 0.00 0.00 0.00 95 1013.2
20260901092700 22 30 0.0 0.0 0.00 0.00 0.00 95 1013.3
20260901092154 22 30 0.0 0.0 0.00 0.00 0.00 95 1013.3
20260901091648 22 30 0.0 0.0 0.00 0.00 0.00 95 1013.3
20260901091142 22 31 0.0 0.0 0.00 0.00 0.00 95 1013.3
20260901090635 22 30 0.0 0.0 0.00 0.00 0.00 95 1013.3
20260901090130 22 30 0.0 0.0 0.00 0.00 0.00 95 1013.3
20260901085624 22 30 0.0 0.0 0.00 0.00 0.00 94 1013.2
20260901085118 22 31 0.0 0.0 0.00 0.00 0.00 94 1013.3
20260901084841 22 30 0.0 0.0 0.00 0.00 0.00 94 1013.3
20260901084106 22 30 0.0 0.0 0.00 0.00 0.00 94 1013.3
20260901083600 22 30 0.0 0.0 0.00 0.00 0.00 94 1013.2
20260901083054 22 30 0.0 0.0 0.00 0.00 0.00 94 1013.3
20260901082548 22 30 0.0 0.0 0.00 0.00 0.00 94 1013.3
20260901082042 22 30 0.0 0.0 0.00 0.00 0.00 94 1013.3
20260901081535 22 30 0.0 0.0 0.00 0.00 0.00 94 1013.3
20260901081253 22 31 0.0 0.0 0.00 0.00 0.00 94 1013.3
20260901080751 22 31 0.0 0.0 0.00 0.00 0.00 94 1013.4
20260901080017 22 31 0.0 0.0 0.00 0.00 0.00 93 1013.4
20260901075512 22 30 0.0 0.0 0.00 0.00 0.00 93 1013.4
20260901075006 22 30 0.0 0.0 0.00 0.00 0.00 94 1013.3
20260901074950 22 31 0.0 0.0 0.00 0.00 0.00 94 1013.4
20260901073954 22 31 0.0 0.0 0.00 0.00 0.00 94 1013.3
20260901073448 22 30 0.0 0.0 0.00 0.00 0.00 93 1013.4
20260901072942 23 31 0.0 0.0 0.00 0.00 0.00 93 1013.4
20260901072700 23 30 0.0 0.0 0.00 0.00 0.00 93 1013.3
20260901071930 23 30 0.0 0.0 0.00 0.00 0.00 93 1013.5
20260901071424 23 31 0.0 0.0 0.00 0.00 0.00 93 1013.5
20260901071140 23 30 0.0 0.0 0.00 0.00 0.00 93 1013.6
20260901070412 23 30 0.0 0.0 0.00 0.00 0.00 93 1013.7
20260901065906 23 31 0.0 0.0 0.00 0.00 0.00 93 1013.7
20260901065400 23 31 0.0 0.0 0.00 0.00 0.00 92 1013.7
20260901065112 23 31 0.0 0.0 0.00 0.00 0.00 92 1013.8
20260901064348 23 31 0.0 0.0 0.00 0.00 0.00 92 1013.8
20260901063842 23 30 0.0 0.0 0.00 0.00 0.00 92 1013.9
20260901063602 23 30 0.0 0.0 0.00 0.00 0.00 92 1013.9
20260901062842 23 31 0.0 0.0 0.00 0.00 0.00 92 1013.9
20260901062342 23 31 0.0 0.0 0.00 0.00 0.00 92 1013.9
20260901061840 23 31 0.0 0.0 0.00 0.00 0.00 91 1014.0
20260901061338 23 30 0.0 0.0 0.00 0.00 0.00 91 1014.0
20260901060836 23 30 0.0 0.0 0.00 0.00 0.00 91 1014.0
20260901060341 23 31 0.0 0.0 0.00 0.00 0.00 91 1014.1
20260901060106 23 30 0.0 0.0 0.00 0.00 0.00 91 1014.1
20260901055558 23 30 0.0 0.0 0.00 0.00 0.00 91 1014.1
20260901054836 23 31 0.0 0.0 0.00 0.00 0.00 91 1014.3
20260901054334 23 31 0.0 0.0 0.00 0.00 0.00 91 1014.2
20260901053831 23 30 0.0 0.0 0.00 0.00 0.00 90 1014.2
20260901053331 23 30 0.0 0.0 0.00 0.00 0.00 90 1014.3
20260901052830 23 30 0.0 0.0 0.00 0.00 0.00 90 1014.3
20260901052332 23 31 0.0 0.0 0.00 0.00 0.00 90 1014.4
20260901051830 23 31 0.0 0.0 0.00 0.00 0.00 89 1014.4
20260901051552 23 31 0.0 0.0 0.00 0.00 0.00 89 1014.4
20260901050835 23 30 0.0 0.0 0.00 0.00 0.00 89 1014.5
20260901050329 24 30 0.0 0.0 0.00 0.00 0.00 89 1014.5
20260901045827 24 30 0.0 0.0 0.00 0.00 0.00 88 1014.5
20260901045324 24 31 0.0 0.0 0.00 0.00 0.00 88 1014.6
20260901044825 24 30 0.0 0.0 0.00 0.00 0.00 88 1014.6
20260901044547 24 31 0.0 0.0 0.00 0.00 0.00 88 1014.6
20260901043825 24 30 0.0 0.0 0.00 0.00 0.00 88 1014.6
20260901043325 24 30 0.0 0.0 0.00 0.00 0.00 88 1014.6
20260901042823 24 30 0.0 0.0 0.00 0.00 0.00 87 1014.7
20260901042323 24 30 0.0 0.0 0.00 0.00 0.00 87 1014.6
20260901041824 24 31 0.0 0.0 0.00 0.00 0.00 87 1014.6
20260901041323 25 31 0.0 0.0 0.00 0.00 0.00 87 1014.5
20260901040824 25 31 0.0 0.0 0.00 0.00 0.00 87 1014.5
20260901040321 25 30 0.0 0.0 0.00 0.00 0.00 87 1014.4
20260901035822 25 31 0.0 0.0 0.00 0.00 0.00 87 1014.3
20260901035316 25 31 0.0 0.0 0.00 0.00 0.00 86 1014.4
20260901034811 25 31 0.0 0.0 0.00 0.00 0.00 86 1014.4
20260901034753 25 30 0.0 0.0 0.00 0.00 0.00 86 1014.4
20260901033758 25 31 0.0 0.0 0.00 0.00 0.00 85 1014.4
20260901033252 25 30 0.0 0.0 0.00 0.00 0.00 84 1014.3
20260901033008 25 31 0.0 0.0 0.00 0.00 0.00 84 1014.3
20260901032240 25 31 0.0 0.0 0.00 0.00 0.00 85 1014.3
20260901031733 25 31 0.0 0.0 0.00 0.00 0.00 84 1014.2
20260901031228 25 30 0.0 0.0 0.00 0.00 0.00 84 1014.3
20260901030721 25 30 0.0 0.0 0.00 0.00 0.00 83 1014.4
20260901030216 26 30 0.0 0.0 0.00 0.00 0.00 84 1014.4
20260901025716 26 31 0.0 0.0 0.00 0.00 0.00 83 1014.4
20260901025216 26 31 0.0 0.0 0.00 0.00 0.00 83 1014.4
20260901024718 26 31 0.0 0.0 0.00 0.00 0.00 82 1014.3
20260901024215 26 31 0.0 0.0 0.00 0.00 0.00 82 1014.3
20260901023715 26 30 0.0 0.0 0.00 0.00 0.00 82 1014.3
20260901023702 26 30 0.0 0.0 0.00 0.00 0.00 82 1014.3
20260901022716 26 31 0.0 0.0 0.00 0.00 0.00 82 1014.3
20260901022658 26 30 0.0 0.0 0.00 0.00 0.00 81 1014.4
20260901022308 26 30 0.0 0.0 0.00 0.00 0.00 81 1014.3